Regional Weather Roundup
Issued by NWS Kansas City/Pleasant Hill, MO

Home | Current Version | Previous Version | Graphics & Text | Print | Product List | Glossary Off
Versions: 1 2 3 4 5 6 7 8 9 10 11 12 13 14 15 16 17 18 19 20 21 22 23 24 25 26 27 28 29 30 31 32 33 34 35 36 37 38 39 40 41 42 43 44 45 46 47 48 49 50

000
ASUS43 KEAX 221810
RWREAX

WEATHER ROUNDUP FOR EASTERN KANSAS AND NORTHWEST MISSOURI
NATIONAL WEATHER SERVICE KANSAS CITY/PLEASANT HILL MO
100 PM CDT WED OCT 22 2014

KSZ040-057-103>105-MOZ028-029-037-043-221900-
...KANSAS CITY METROPOLITAN AREA...

CITY           SKY/WX    TMP DP  RH WIND       PRES   REMARKS
K.C. INTL      FAIR      67  52  58 SE12      30.17F
6HR MIN TEMP:  53; 6HR MAX TEMP:  67;

K.C. DOWNTOWN  PTSUNNY   69  50  50 SE9       30.17F
6HR MIN TEMP:  55; 6HR MAX TEMP:  69;

LEES SUMMIT    PTSUNNY   65  49  56 SE9       30.19F
6HR MIN TEMP:  52; 6HR MAX TEMP:  65;

OLATHE - IXD   FAIR      69  54  58 SE12      30.17F
6HR MIN TEMP:  52; 6HR MAX TEMP:  69;

OLATHE - OJC   FAIR      67  53  61 SE12      30.16F
6HR MIN TEMP:  53; 6HR MAX TEMP:  67;

LAWRENCE       FAIR      70  53  54 SE13      30.15F

$$

MOZ001>008-011>017-020>025-030>033-038>040-044>046-053-054-221900-
...NORTHERN AND CENTRAL MISSOURI...

CITY           SKY/WX    TMP DP  RH WIND       PRES   REMARKS
ST. JOSEPH     FAIR      67  51  56 SE12      30.15F
6HR MIN TEMP:  53; 6HR MAX TEMP:  67;

MOSBY          FAIR      64  46  52 SE8       30.18F
WHITEMAN AFB   FAIR      67  49  52 S9        30.20F
6HR MIN TEMP:  45; 6HR MAX TEMP:  67;

CLINTON        FAIR      66  52  59 S6        30.22F
SEDALIA        FAIR      68  49  50 S9        30.23F
6HR MIN TEMP:  46; 6HR MAX TEMP:  68;

WARSAW         NOT AVBL
MARSHALL       FAIR      68  50  52 SE6       30.23F
CHILLICOTHE      N/A     65  48  54 SE6       30.22F
6HR MIN TEMP:  46; 6HR MAX TEMP:  65;

MOBERLY        FAIR      64  41  42 SE7       30.26F
KIRKSVILLE     FAIR      61  47  59 SE13      30.26F
6HR MIN TEMP:  39; 6HR MAX TEMP:  61;


$$

MOZ041-047>049-056>058-063>065-088>090-097-221900-
...EASTERN AND SOUTHERN MISSOURI...

CITY           SKY/WX    TMP DP  RH WIND       PRES   REMARKS
ST. LOUIS INTL FAIR      59  43  55 E5        30.30F
6HR MIN TEMP:  43; 6HR MAX TEMP:  59;

SPIRIT OF STL  FAIR      59  43  55 SE5       30.28F
COLUMBIA       FAIR      62  45  53 SE9       30.25F
JEFFERSON CITY FAIR      63  43  48 SE8       30.25F
MEXICO         FAIR      64  46  52 E8        30.27F
HANNIBAL       FAIR      63  37  39 SE5       30.28F
ROLLA          FAIR      61  43  51 SE10      30.25F
LEBANON        FAIR      66  46  48 SE8       30.23F
OSAGE BEACH    FAIR      66  46  48 SE6       30.24F
SPRINGFIELD      N/A     66  47  50 SE12      30.22F
BRANSON        SUNNY     66  46  48 E8        30.24F
NEVADA         FAIR      70  54  56 E7        30.19F
JOPLIN         FAIR      71  55  56 S6        30.19F
WEST PLAINS    FAIR      61  44  53 SE7       30.27F

$$

IAZ060-094-KSZ022-034>040-054-083-096-NEZ052-066-093-221900-
...KANSAS...SOUTHEAST NEBRASKA AND IOWA...

CITY           SKY/WX    TMP DP  RH WIND       PRES   REMARKS
TOPEKA         FAIR      73  57  57 SE12      30.13F
6HR MIN TEMP:  52; 6HR MAX TEMP:  74;

MANHATTAN      FAIR      79  55  43 S15G21    30.08F
EMPORIA        FAIR      75  59  57 S14G24    30.13F
CHANUTE        FAIR      74  61  63 S8        30.15F
WICHITA        FAIR      78  53  41 S23       30.10F
OMAHA          FAIR      70  50  49 S18       30.07F
LINCOLN        FAIR      78  54  43 S20       30.04F
FALLS CITY     LGT RAIN  72  54  53 S16       30.10F
LAMONI         CLOUDY    61  46  57 SE15      30.19F
DES MOINES     PTSUNNY   59  44  57 SE16      30.19F

$$




USA.gov is the U.S. government's official web portal to all federal, state and local government web resources and services.